| time (UTC) | temp F | wind direction | speed MPH | gust MPH | rain 1hr in | rain 24hr in | rain mn in | humidity % | barometer mb |
| 20260510211532 | 69 | 256 | 13.0 | 23.0 | 0.00 | 0.00 | 0.00 | 54 | 1015.6 |
| 20260510204530 | 62 | 269 | 14.0 | 23.0 | 0.00 | 0.00 | 0.00 | 62 | 1015.5 |
| 20260510203106 | 64 | 267 | 14.0 | 25.0 | 0.00 | 0.00 | 0.00 | 60 | 1015.1 |
| 20260510201607 | 66 | 275 | 13.0 | 27.0 | 0.00 | 0.00 | 0.00 | 57 | 1014.7 |
| 20260510200106 | 69 | 272 | 15.0 | 26.0 | 0.00 | 0.00 | 0.00 | 54 | 1014.6 |
| 20260510194528 | 71 | 263 | 15.0 | 26.0 | 0.00 | 0.00 | 0.00 | 55 | 1014.6 |
| 20260510193106 | 70 | 256 | 12.0 | 24.0 | 0.00 | 0.00 | 0.00 | 58 | 1014.5 |
| 20260510191530 | 69 | 252 | 10.0 | 23.0 | 0.00 | 0.00 | 0.00 | 58 | 1014.4 |
| 20260510184531 | 69 | 269 | 7.0 | 15.0 | 0.00 | 0.00 | 0.00 | 60 | 1014.5 |
| 20260510183033 | 70 | 288 | 4.0 | 11.0 | 0.00 | 0.00 | 0.00 | 61 | 1014.5 |
| 20260510181532 | 69 | 343 | 3.0 | 6.0 | 0.00 | 0.00 | 0.00 | 64 | 1014.5 |
| 20260510180029 | 65 | 9 | 3.0 | 8.0 | 0.00 | 0.00 | 0.00 | 69 | 1014.6 |
| 20260510174646 | 62 | 353 | 4.0 | 8.0 | 0.00 | 0.00 | 0.00 | 73 | 1014.6 |
| 20260510173107 | 61 | 355 | 6.0 | 9.0 | 0.00 | 0.00 | 0.00 | 74 | 1014.6 |
| 20260510171532 | 60 | 357 | 6.0 | 11.0 | 0.00 | 0.00 | 0.00 | 74 | 1014.6 |
| 20260510170029 | 60 | 359 | 7.0 | 11.0 | 0.00 | 0.00 | 0.00 | 74 | 1014.5 |
| 20260510163030 | 59 | 18 | 7.0 | 9.0 | 0.00 | 0.00 | 0.00 | 73 | 1014.5 |
| 20260510161646 | 59 | 14 | 6.0 | 9.0 | 0.00 | 0.00 | 0.00 | 74 | 1014.6 |
| 20260510154532 | 57 | 12 | 5.0 | 8.0 | 0.00 | 0.00 | 0.00 | 77 | 1014.3 |
| 20260510151530 | 53 | 12 | 3.0 | 5.0 | 0.00 | 0.00 | 0.00 | 80 | 1014.2 |
| 20260510150028 | 51 | 85 | 1.0 | 4.0 | 0.00 | 0.00 | 0.00 | 80 | 1014.5 |
| 20260510144556 | 50 | 102 | 1.0 | 3.0 | 0.00 | 0.00 | 0.00 | 79 | 1014.1 |
| 20260510143106 | 50 | 166 | 2.0 | 4.0 | 0.00 | 0.00 | 0.00 | 77 | 1014.1 |
| 20260510141531 | 51 | 337 | 1.0 | 4.0 | 0.00 | 0.00 | 0.00 | 78 | 1013.9 |
| 20260510140030 | 49 | 37 | 0.0 | 3.0 | 0.00 | 0.00 | 0.00 | 79 | 1013.8 |
| 20260510134543 | 48 | 337 | 0.0 | 0.0 | 0.00 | 0.00 | 0.00 | 79 | 1014.1 |
| 20260510133102 | 47 | 337 | 0.0 | 2.0 | 0.00 | 0.00 | 0.00 | 80 | 1014.0 |
| 20260510130032 | 47 | 202 | 0.0 | 3.0 | 0.00 | 0.00 | 0.00 | 77 | 1013.9 |
| 20260510124530 | 48 | 138 | 0.0 | 4.0 | 0.00 | 0.00 | 0.00 | 77 | 1013.9 |
| 20260510123031 | 47 | 152 | 3.0 | 5.0 | 0.00 | 0.00 | 0.00 | 77 | 1014.1 |
| 20260510121607 | 48 | 237 | 0.0 | 3.0 | 0.00 | 0.00 | 0.00 | 76 | 1014.1 |
| 20260510120030 | 48 | 46 | 2.0 | 5.0 | 0.00 | 0.00 | 0.00 | 77 | 1013.9 |
| 20260510114530 | 46 | 34 | 3.0 | 4.0 | 0.00 | 0.00 | 0.00 | 76 | 1014.0 |
| 20260510113107 | 48 | 204 | 1.0 | 3.0 | 0.00 | 0.00 | 0.00 | 74 | 1013.9 |
| 20260510111605 | 49 | 152 | 0.0 | 2.0 | 0.00 | 0.00 | 0.00 | 73 | 1013.6 |
| 20260510110033 | 50 | 94 | 0.0 | 2.0 | 0.00 | 0.00 | 0.00 | 73 | 1013.5 |
| 20260510104531 | 50 | 67 | 1.0 | 2.0 | 0.00 | 0.00 | 0.00 | 73 | 1013.9 |
| 20260510103030 | 50 | 61 | 1.0 | 3.0 | 0.00 | 0.00 | 0.00 | 72 | 1014.0 |
| 20260510101529 | 49 | 325 | 0.0 | 2.0 | 0.00 | 0.00 | 0.00 | 71 | 1013.7 |
| 20260510100030 | 50 | 193 | 1.0 | 3.0 | 0.00 | 0.00 | 0.00 | 71 | 1013.7 |
| 20260510094531 | 51 | 126 | 0.0 | 2.0 | 0.00 | 0.00 | 0.00 | 69 | 1013.6 |
| 20260510093034 | 51 | 45 | 0.0 | 0.0 | 0.00 | 0.00 | 0.00 | 69 | 1013.6 |
| 20260510091529 | 51 | 51 | 2.0 | 4.0 | 0.00 | 0.00 | 0.00 | 68 | 1013.8 |
| 20260510090145 | 51 | 312 | 0.0 | 4.0 | 0.00 | 0.00 | 0.00 | 67 | 1013.8 |
| 20260510084530 | 52 | 7 | 2.0 | 4.0 | 0.00 | 0.00 | 0.00 | 66 | 1013.9 |
| 20260510083030 | 52 | 12 | 2.0 | 4.0 | 0.00 | 0.00 | 0.00 | 64 | 1014.0 |
| 20260510081607 | 53 | 67 | 1.0 | 3.0 | 0.00 | 0.00 | 0.00 | 65 | 1014.0 |
| 20260510080029 | 52 | 140 | 0.0 | 2.0 | 0.00 | 0.00 | 0.00 | 63 | 1014.1 |
| 20260510074531 | 54 | 136 | 0.0 | 2.0 | 0.00 | 0.00 | 0.00 | 60 | 1014.1 |
| 20260510073030 | 55 | 112 | 0.0 | 2.0 | 0.00 | 0.00 | 0.00 | 60 | 1014.1 |
| 20260510071531 | 54 | 138 | 1.0 | 4.0 | 0.00 | 0.00 | 0.00 | 62 | 1014.1 |
| 20260510064532 | 57 | 91 | 0.0 | 2.0 | 0.00 | 0.00 | 0.00 | 58 | 1014.0 |
| 20260510063036 | 58 | 88 | 1.0 | 3.0 | 0.00 | 0.00 | 0.00 | 58 | 1013.9 |
| 20260510061529 | 58 | 69 | 1.0 | 4.0 | 0.00 | 0.00 | 0.00 | 57 | 1013.9 |
| 20260510051530 | 61 | 202 | 0.0 | 2.0 | 0.00 | 0.00 | 0.00 | 52 | 1013.5 |
| 20260510050031 | 62 | 192 | 1.0 | 4.0 | 0.00 | 0.00 | 0.00 | 50 | 1013.4 |
| 20260510044529 | 63 | 185 | 1.0 | 4.0 | 0.00 | 0.00 | 0.00 | 49 | 1013.2 |
| 20260510041531 | 64 | 153 | 0.0 | 2.0 | 0.00 | 0.00 | 0.00 | 48 | 1013.0 |
| 20260510040030 | 66 | 155 | 2.0 | 4.0 | 0.00 | 0.00 | 0.00 | 49 | 1012.7 |
| 20260510033031 | 68 | 202 | 0.0 | 2.0 | 0.00 | 0.00 | 0.00 | 46 | 1012.5 |
| 20260510031529 | 69 | 182 | 0.0 | 2.0 | 0.00 | 0.00 | 0.00 | 44 | 1012.5 |
| 20260510030030 | 70 | 113 | 0.0 | 3.0 | 0.00 | 0.00 | 0.00 | 44 | 1012.5 |
| 20260510021530 | 72 | 117 | 1.0 | 4.0 | 0.00 | 0.00 | 0.00 | 39 | 1012.3 |
| 20260510020032 | 73 | 242 | 1.0 | 3.0 | 0.00 | 0.00 | 0.00 | 39 | 1012.4 |
| 20260510014532 | 74 | 201 | 1.0 | 3.0 | 0.00 | 0.00 | 0.00 | 38 | 1012.6 |
| 20260510011531 | 75 | 34 | 3.0 | 8.0 | 0.00 | 0.00 | 0.00 | 35 | 1012.7 |
| 20260510004530 | 78 | 38 | 4.0 | 8.0 | 0.00 | 0.00 | 0.00 | 33 | 1012.9 |
| 20260510003031 | 79 | 37 | 5.0 | 10.0 | 0.00 | 0.00 | 0.00 | 33 | 1012.9 |
| 20260510001531 | 77 | 46 | 4.0 | 11.0 | 0.00 | 0.00 | 0.00 | 33 | 1013.0 |
| 20260510000032 | 78 | 44 | 5.0 | 13.0 | 0.00 | 0.00 | 0.00 | 33 | 1013.1 |
| 20260509234530 | 80 | 31 | 6.0 | 11.0 | 0.00 | 0.00 | 0.00 | 33 | 1013.3 |
| 20260509233029 | 81 | 38 | 4.0 | 9.0 | 0.00 | 0.00 | 0.00 | 34 | 1013.6 |
| 20260509231532 | 81 | 25 | 6.0 | 10.0 | 0.00 | 0.00 | 0.00 | 34 | 1013.8 |
| 20260509230030 | 82 | 16 | 6.0 | 10.0 | 0.00 | 0.00 | 0.00 | 35 | 1014.1 |
| 20260509224532 | 81 | 17 | 4.0 | 11.0 | 0.00 | 0.00 | 0.00 | 36 | 1014.4 |
| 20260509223031 | 80 | 19 | 6.0 | 10.0 | 0.00 | 0.00 | 0.00 | 37 | 1014.6 |
| 20260509221646 | 79 | 20 | 7.0 | 12.0 | 0.00 | 0.00 | 0.00 | 38 | 1014.9 |
| 20260509220054 | 79 | 24 | 9.0 | 16.0 | 0.00 | 0.00 | 0.00 | 38 | 1015.0 |
| 20260509214532 | 78 | 27 | 9.0 | 14.0 | 0.00 | 0.00 | 0.00 | 40 | 1015.2 |
| 20260509213106 | 79 | 29 | 9.0 | 14.0 | 0.00 | 0.00 | 0.00 | 41 | 1015.4 |